Theta_e
309 308 308 308 309 309 309 310 311 312 312 312 312 313 313 313 313 313 314 314 314 314 313 313 313 313 313 314 314 314 313 301 299 296 294 299 313 317 316 317 316 317 317 310 308 305 303 304 303 307 306 303 300 301 304 309 310 309 303 300 297 298 298 302 302 304 305 307 305 306 302 304 304 303 304 305 304 306 306 305 310 315 314 315 315 318 326 330
309 309 309 308 309 309 310 311 311 312 312 312 312 313 313 313 313 313 314 314 314 314 314 313 313 314 313 313 314 314 308 300 296 294 293 307 318 317 316 316 316 315 312 307 305 303 301 301 302 305 303 299 302 299 306 303 310 304 299 300 296 300 302 306 307 308 306 307 308 308 305 305 306 305 303 302 299 303 304 304 310 313 313 316 319 323 326 329
309 309 309 309 310 310 310 311 311 312 312 312 312 312 313 313 312 312 313 313 313 314 314 314 313 313 313 313 312 313 304 297 293 288 299 317 320 318 317 317 317 316 309 304 306 305 303 302 303 303 301 299 299 296 300 300 306 305 300 297 299 302 303 306 308 308 310 310 311 311 309 306 307 303 303 302 298 302 302 301 305 309 310 313 318 322 326 328
309 308 309 309 310 310 311 311 311 311 311 312 311 312 312 312 312 311 311 312 313 313 314 314 313 313 313 313 313 307 298 292 284 290 300 315 317 316 318 316 315 313 309 309 308 306 306 304 303 303 299 298 299 299 296 298 302 301 301 298 300 303 301 304 308 309 311 311 310 310 310 309 308 304 302 300 299 298 302 304 306 307 311 314 319 322 325 327
308 308 309 309 309 309 309 310 310 310 311 311 311 311 311 311 311 311 312 312 312 313 313 314 313 313 312 313 312 300 295 280 289 300 306 315 315 317 316 315 314 309 309 308 309 307 306 303 302 301 300 295 296 295 295 297 302 300 300 303 303 301 302 305 306 310 310 311 309 308 308 309 309 305 303 300 301 298 302 307 307 308 315 317 318 322 325 326
308 308 309 309 309 308 309 309 310 311 310 310 311 311 310 311 311 311 311 312 313 313 313 313 313 312 313 311 300 297 287 273 294 295 318 313 315 315 314 313 312 310 309 307 305 305 305 304 302 296 296 296 295 293 295 295 300 293 300 302 305 305 301 304 306 307 310 309 309 308 310 312 310 308 301 300 302 303 304 302 306 307 318 320 319 322 323 325
308 308 308 308 307 307 308 309 309 309 309 310 310 310 310 311 311 311 311 312 312 312 312 312 312 312 312 312 297 296 290 290 296 298 310 312 313 311 311 309 310 305 304 304 305 303 303 301 301 296 295 296 297 296 298 297 298 296 294 300 301 305 304 305 304 308 307 308 309 311 311 308 309 306 305 302 302 305 304 304 306 316 320 321 320 322 323 324
307 308 308 307 307 307 308 308 308 308 309 309 309 310 310 311 311 311 311 311 312 312 312 312 312 312 311 299 296 291 289 290 297 301 308 311 305 304 306 301 302 301 302 301 304 302 303 299 297 300 296 292 296 296 297 295 296 292 291 296 300 303 304 305 307 306 306 307 310 312 310 310 310 307 304 302 305 308 309 308 317 318 318 320 320 321 322 323
308 308 308 306 308 307 307 307 308 308 308 309 309 309 310 311 311 311 310 312 312 312 312 312 311 312 311 299 293 288 285 294 299 301 302 300 300 300 300 298 299 299 299 301 307 305 302 299 300 300 292 294 298 295 295 292 290 294 293 294 297 301 304 303 304 306 306 306 309 308 308 310 311 311 308 308 309 311 308 307 315 317 318 318 320 321 322 322
308 307 306 306 308 307 307 307 307 308 308 308 309 309 310 311 311 311 312 312 312 312 312 311 311 311 302 296 292 283 291 298 299 301 301 300 300 300 299 298 298 298 295 296 300 301 299 301 300 303 300 297 299 295 297 295 291 296 295 296 296 298 301 305 304 304 305 306 308 306 306 306 309 310 305 309 311 306 306 311 315 316 316 318 319 321 322 322
306 305 305 306 306 306 307 307 307 307 308 308 309 309 310 310 311 311 311 311 312 311 311 311 312 307 297 298 291 285 298 299 301 301 301 300 299 298 298 299 299 297 296 296 297 301 304 304 304 304 300 296 298 296 296 295 298 296 296 294 295 297 299 300 301 303 304 303 305 307 305 307 308 307 306 308 306 308 307 311 315 316 316 317 319 320 321 322
306 306 307 306 305 306 307 307 307 307 308 308 308 309 309 310 310 310 309 310 312 311 311 312 310 301 297 296 292 291 300 299 302 301 301 300 298 299 299 299 299 298 297 294 296 300 302 304 303 300 292 303 293 295 295 299 297 295 294 289 291 294 295 298 299 302 304 303 304 305 302 301 303 302 308 311 311 307 307 306 313 315 316 316 318 319 320 321
305 305 306 305 305 305 307 307 306 307 307 308 308 308 309 309 309 309 310 311 311 311 312 312 307 300 296 287 292 300 302 302 301 300 300 300 299 300 300 300 300 300 299 297 296 299 302 302 303 297 301 298 296 291 293 295 294 295 294 291 290 290 290 297 300 301 302 304 304 305 293 297 301 304 306 310 310 309 307 307 307 311 316 317 318 319 320 320
304 305 305 305 305 305 306 306 306 307 307 308 308 308 308 308 309 310 311 311 312 311 313 310 300 297 294 288 295 298 299 300 299 298 298 299 297 298 299 299 300 300 300 299 300 301 300 304 303 301 303 297 293 304 296 292 295 290 291 291 286 286 285 295 299 299 299 305 304 306 294 297 301 304 306 308 309 308 306 307 307 307 313 316 318 319 320 321
305 305 305 305 305 305 305 305 306 306 307 307 307 307 308 308 309 311 312 310 310 313 311 307 298 293 288 290 297 300 309 300 295 296 298 296 296 296 296 299 300 300 301 302 301 303 303 303 301 296 293 302 301 295 292 290 289 290 286 282 286 284 285 290 299 300 296 301 305 303 295 297 301 303 304 307 307 307 306 306 307 307 309 315 317 319 320 321
305 305 305 305 305 305 305 305 305 306 307 307 307 307 308 309 310 311 310 307 309 310 299 296 297 295 288 284 291 305 295 292 293 296 298 299 296 293 296 298 299 298 300 299 304 304 303 302 295 295 294 296 293 290 288 288 286 287 286 281 281 284 284 285 292 299 301 300 302 302 295 298 299 304 303 303 305 306 305 305 305 305 306 311 316 318 319 321
304 305 304 304 304 305 305 305 305 306 306 306 307 307 308 309 310 308 307 307 302 300 298 294 297 299 285 292 298 292 290 293 295 295 297 298 297 296 297 295 295 296 298 298 301 303 302 296 298 297 296 291 292 291 285 283 283 285 288 284 283 282 283 283 289 297 300 300 297 302 299 299 297 297 302 304 306 305 304 304 305 306 305 308 313 317 319 320
304 304 304 304 304 304 305 305 306 306 306 305 306 306 305 307 308 307 306 299 296 297 298 297 296 289 285 290 287 287 293 293 295 296 296 297 298 297 295 293 293 294 293 293 299 295 298 292 295 288 292 288 290 287 281 280 284 283 282 282 283 284 285 284 284 290 298 299 297 298 299 299 301 300 299 303 305 305 305 305 306 306 303 305 310 314 317 319
303 303 303 304 304 304 304 305 306 306 305 306 305 306 305 305 294 293 295 295 286 282 280 283 285 275 275 286 291 292 293 296 297 295 295 296 297 298 297 297 295 292 286 287 290 293 293 291 291 286 281 285 286 286 285 287 288 286 285 283 283 282 283 284 288 292 297 295 295 296 296 298 301 302 303 301 304 305 305 306 307 309 309 303 305 310 314 317
304 303 303 304 304 304 304 305 306 306 305 300 293 293 293 289 285 281 291 290 285 285 286 286 287 287 288 289 289 293 298 297 291 291 294 296 298 296 294 294 291 293 289 282 284 289 294 284 282 282 284 286 288 288 288 288 288 287 286 285 283 282 284 285 286 291 294 295 295 296 297 298 300 302 303 305 301 305 306 306 306 307 308 308 306 304 308 313
303 303 304 303 304 304 304 304 306 305 305 294 293 291 286 287 280 278 288 289 288 287 287 288 288 287 288 290 291 291 289 290 292 291 294 299 296 292 288 290 285 283 285 285 285 292 288 281 282 285 286 288 288 287 287 287 287 285 285 284 284 284 282 285 287 290 292 293 293 297 297 297 299 301 300 302 303 301 304 306 306 306 307 308 310 309 306 307
303 303 303 303 303 303 304 305 305 303 302 292 295 289 292 293 295 296 293 283 288 289 287 288 289 288 291 290 292 292 291 288 290 290 294 296 292 288 286 288 285 282 284 285 285 284 283 280 284 288 290 290 287 286 287 285 284 284 283 282 282 282 283 287 287 288 290 291 290 294 295 296 299 301 302 302 302 304 302 305 307 307 307 307 309 310 311 310
303 302 303 302 302 303 303 305 304 302 291 291 291 292 292 296 295 295 296 290 286 288 286 285 285 285 286 290 291 293 288 284 284 290 291 293 290 290 289 285 284 285 285 286 281 280 277 282 286 290 291 288 286 285 286 286 286 284 282 280 278 281 281 279 286 287 290 288 286 288 292 295 298 300 301 304 304 304 304 304 305 307 307 307 309 311 312 313
302 302 302 302 302 303 304 305 303 295 290 288 291 292 296 295 293 297 293 284 281 284 286 286 287 286 286 287 292 291 287 286 286 287 295 293 287 291 289 287 285 285 283 284 283 281 280 285 289 290 290 288 284 285 285 284 283 285 284 282 280 280 280 283 282 286 288 287 288 287 286 288 291 293 296 301 304 304 305 306 304 305 307 309 310 312 313 313
302 302 302 302 302 303 304 305 289 288 289 290 290 293 293 295 295 296 285 276 276 278 287 286 287 287 290 295 293 287 287 288 288 289 292 293 291 290 289 291 287 282 282 283 284 283 283 287 289 287 287 287 285 284 285 284 282 282 284 283 283 282 281 281 283 284 282 281 285 285 280 282 288 291 294 297 300 301 303 303 305 305 303 304 305 309 311 313
301 301 301 302 301 303 304 291 284 289 288 288 291 293 293 294 295 294 278 263 262 272 283 279 290 286 293 287 289 288 290 282 288 290 294 295 299 292 290 286 287 281 283 283 282 283 285 289 288 286 286 285 285 285 285 285 281 280 280 283 282 282 281 281 280 282 277 278 282 287 278 277 285 286 289 293 297 299 301 301 303 305 305 302 303 306 308 310
301 301 301 301 301 303 292 284 289 288 284 287 290 291 291 294 295 294 284 258 255 275 276 285 286 286 290 287 287 288 273 278 291 290 291 296 292 298 286 285 287 285 284 282 279 280 284 286 286 285 285 285 283 283 285 286 282 280 286 286 282 280 279 279 280 280 279 282 283 284 286 279 279 285 289 291 292 297 299 300 301 303 304 304 302 303 304 306
302 301 301 301 302 302 292 290 288 286 287 291 292 292 293 293 290 287 265 255 258 280 278 281 287 292 289 289 286 283 283 286 281 286 292 293 295 291 289 285 283 283 287 285 275 282 283 284 285 284 284 283 282 285 287 288 284 284 287 288 286 285 280 279 279 278 278 279 276 279 283 279 277 283 288 290 289 290 294 297 300 301 303 304 305 305 303 304
302 302 302 302 302 301 292 289 287 288 290 290 291 292 295 288 283 272 258 257 269 276 291 281 294 287 286 286 282 283 282 286 280 285 291 292 293 290 284 286 286 286 286 285 280 282 283 285 284 286 284 283 286 287 288 288 284 287 289 290 288 286 283 281 277 277 277 274 271 277 280 274 277 281 286 286 288 288 291 295 297 299 301 302 303 305 306 304
302 302 303 303 298 290 286 288 289 291 291 293 292 292 290 289 278 264 257 256 274 267 281 282 283 279 283 279 278 281 281 281 284 286 287 285 288 289 290 291 286 284 283 283 284 286 287 291 290 286 285 288 286 286 289 289 289 291 289 286 286 285 284 282 279 277 271 265 271 277 278 278 273 280 284 284 285 288 289 291 294 296 297 300 302 303 305 307
302 302 302 303 288 290 290 286 288 290 292 292 292 287 286 274 260 253 257 265 275 271 280 278 279 283 279 276 275 282 279 280 281 282 280 284 284 285 286 285 290 284 280 280 281 283 284 285 286 287 287 288 288 287 288 287 290 289 284 283 283 282 283 281 279 275 269 265 272 276 277 279 271 276 284 287 288 289 291 290 292 293 295 297 298 301 303 305
302 302 302 295 294 291 289 290 295 293 294 292 287 282 278 269 263 264 259 276 263 272 271 276 281 279 278 277 276 277 277 278 280 280 277 277 278 280 281 278 280 274 274 275 275 281 280 282 284 285 289 288 284 283 286 289 288 287 285 284 277 274 276 273 277 271 270 271 274 275 276 271 274 279 280 282 284 287 289 292 293 294 295 296 297 298 301 303
301 301 301 296 296 287 292 294 295 294 292 289 283 278 262 255 258 258 265 268 264 274 274 280 278 279 276 273 275 277 277 274 280 280 279 277 278 279 279 281 281 279 270 276 275 276 276 281 282 284 285 286 284 281 281 280 284 285 282 280 276 272 271 270 272 274 274 275 277 274 276 274 276 279 283 283 286 287 289 291 293 295 296 298 299 300 301 302
300 299 289 292 292 292 295 295 295 292 290 286 279 272 266 260 261 276 269 270 274 277 278 277 278 276 269 273 276 276 274 276 274 278 277 274 275 277 280 281 281 279 277 278 274 274 268 270 278 281 279 285 284 283 283 282 284 284 284 281 279 277 273 270 271 269 271 273 277 280 274 269 273 276 280 284 284 286 289 291 292 294 296 297 298 297 296 297
299 291 286 287 290 292 292 293 292 291 286 281 272 264 261 259 260 262 267 274 278 276 274 274 274 272 271 272 274 277 278 272 276 277 274 275 274 275 277 278 280 280 280 274 276 270 272 273 279 284 283 284 283 285 285 283 281 282 284 284 277 275 281 273 274 272 270 272 272 276 275 275 278 283 286 285 284 286 288 289 289 290 292 293 293 295 296 296
293 286 288 286 290 293 293 294 292 288 284 276 270 267 263 258 266 268 275 282 279 273 276 276 272 267 269 272 271 274 278 273 276 273 269 275 275 277 279 278 278 280 278 275 278 273 275 273 281 282 282 283 283 283 285 285 273 278 281 276 280 286 282 275 275 278 278 274 272 280 279 282 284 287 286 285 284 285 286 287 288 288 289 290 291 292 293 294
284 286 286 288 289 293 293 292 291 287 281 274 269 265 263 267 271 274 282 280 278 278 275 271 268 268 266 269 273 274 275 276 271 272 268 274 270 276 278 278 281 280 279 280 278 282 273 274 282 278 278 281 283 282 284 285 286 280 275 280 285 287 285 279 271 274 273 271 272 278 276 277 277 274 282 285 283 284 285 285 286 287 288 289 290 291 292 292
282 283 289 288 291 292 292 291 289 283 279 275 270 277 268 276 280 279 281 279 278 278 276 271 264 271 265 270 271 274 277 274 275 269 266 269 267 281 279 278 280 280 280 280 277 276 280 272 277 277 278 281 283 281 280 283 285 284 281 282 278 273 275 278 276 268 267 267 269 274 277 277 277 278 280 281 282 283 284 285 286 286 287 287 289 290 291 292
281 282 281 288 291 291 291 290 286 281 274 272 266 275 276 274 277 278 280 281 280 280 276 275 271 268 271 270 272 276 279 274 277 274 266 268 268 278 279 279 278 281 281 279 274 278 281 273 274 279 278 279 278 277 271 277 281 279 285 284 283 281 278 275 275 277 274 270 271 271 276 273 279 278 281 281 282 284 284 285 285 286 286 287 288 289 290 291
281 278 275 287 290 291 291 289 283 276 272 270 271 267 271 276 278 279 279 281 278 278 276 275 275 274 272 270 274 275 278 278 277 275 272 273 275 279 278 280 278 280 281 278 279 279 278 277 268 276 279 276 271 276 274 276 274 277 278 278 280 278 283 281 278 274 273 272 271 272 269 275 279 282 281 283 284 284 284 284 285 285 286 287 287 288 290 291
278 274 274 286 289 291 288 286 279 270 269 270 270 269 273 273 276 278 279 279 279 282 279 277 276 273 271 273 276 278 278 278 275 275 274 270 270 271 278 278 280 278 279 273 276 278 274 276 270 274 274 271 273 278 279 278 279 279 279 277 278 276 272 269 269 279 275 272 270 269 267 276 283 288 287 287 287 285 284 284 285 286 286 287 288 289 289 290
276 269 275 289 288 288 282 276 275 270 275 273 273 276 279 284 269 277 276 277 279 278 277 279 278 279 279 277 278 279 278 277 277 275 274 274 276 277 279 279 279 279 277 273 276 280 280 279 275 270 272 274 276 278 277 278 278 276 280 277 278 276 275 268 264 269 272 271 275 271 269 272 282 287 285 284 284 285 285 285 285 286 286 287 288 288 289 289
277 273 284 285 288 286 278 266 273 277 274 274 277 279 280 276 275 277 275 276 273 276 279 277 279 277 277 278 278 278 279 275 277 274 275 273 270 276 279 277 278 279 279 275 278 279 283 270 270 271 270 272 275 274 278 277 280 276 276 277 276 274 273 271 272 274 270 271 268 269 268 274 281 283 283 282 283 284 286 285 285 286 287 287 287 288 288 288
277 277 280 285 286 285 274 265 268 273 274 270 270 272 276 275 276 272 272 274 276 273 279 280 281 281 278 280 279 276 279 269 276 277 275 276 277 279 276 276 276 275 275 275 274 280 275 273 273 266 265 265 267 269 270 268 271 273 274 276 277 277 275 274 273 273 269 268 271 268 265 272 280 280 283 282 283 283 284 285 286 285 286 287 288 288 289 289
276 277 278 281 284 285 277 276 273 270 270 266 266 270 271 273 276 277 277 274 280 279 279 278 280 280 277 278 278 277 276 275 270 275 276 277 277 280 276 276 277 276 279 281 284 283 278 276 272 265 262 259 259 257 260 266 272 275 275 277 277 277 275 273 265 268 267 270 272 267 268 277 281 282 281 282 282 282 283 285 286 286 286 287 287 288 289 289
274 268 271 271 275 277 277 278 275 273 269 266 267 268 271 269 275 277 276 277 279 278 278 279 278 278 275 273 268 264 265 267 269 267 271 272 274 276 275 276 276 276 281 286 284 280 273 277 276 273 270 267 268 270 274 277 276 273 275 276 276 276 276 275 274 270 267 269 267 272 273 274 276 278 279 281 281 281 282 284 284 286 287 287 287 288 288 289
276 267 265 266 270 270 265 273 270 270 269 272 263 265 269 271 273 272 275 269 275 273 271 276 275 272 269 270 266 263 263 264 263 264 267 271 274 275 276 276 275 280 285 283 283 276 271 272 275 276 275 275 276 275 276 277 275 276 275 275 276 275 276 275 271 270 274 269 267 274 275 274 275 277 279 280 281 282 282 283 284 285 286 286 286 287 289 288
267 271 271 270 268 266 266 266 273 271 274 272 267 271 271 271 272 268 272 276 275 272 269 274 275 274 273 269 270 262 260 261 261 262 266 270 271 273 273 275 275 281 281 279 280 276 270 268 273 274 272 275 276 275 276 276 276 276 275 274 273 275 274 271 272 275 275 271 269 274 275 273 276 278 280 281 281 282 283 283 284 284 285 285 286 286 286 287
271 270 273 273 267 262 269 272 276 274 270 273 275 276 271 270 270 273 269 270 270 270 273 264 268 272 272 272 269 263 264 260 261 260 260 264 269 271 269 272 275 277 276 274 272 269 268 264 267 269 271 273 273 273 274 272 272 272 272 273 274 274 274 274 274 276 275 274 275 275 276 275 278 279 280 282 283 283 283 283 283 283 283 284 284 285 285 285
269 270 266 269 269 270 272 272 272 272 269 276 272 272 274 272 269 271 272 269 266 267 272 270 270 272 272 272 271 267 269 270 269 262 267 271 268 271 270 272 271 274 274 269 270 267 270 266 274 267 265 265 270 272 271 271 271 270 273 273 274 274 274 274 274 275 276 274 276 275 275 275 279 281 281 282 281 281 280 279 280 281 282 283 283 283 284 285
274 272 272 268 265 266 274 272 271 270 266 266 266 269 274 271 270 272 271 274 272 269 271 272 272 271 272 271 271 271 274 273 273 273 274 272 268 272 268 269 275 271 272 269 270 266 270 267 267 262 263 261 267 269 271 272 272 270 270 272 272 272 270 273 272 275 272 271 274 273 272 273 278 279 279 278 277 277 276 278 279 280 282 282 282 284 284 285
278 278 276 271 265 275 270 272 271 268 261 268 272 269 272 272 272 270 269 272 274 274 274 273 272 271 268 269 270 273 275 274 275 276 276 276 276 276 276 275 275 272 270 271 272 268 262 262 262 262 264 264 268 270 271 271 269 265 263 269 272 273 274 274 274 276 276 277 274 270 272 276 277 278 275 275 275 276 276 277 279 280 282 282 283 284 284 284
Wind_Speed
16 15 15 16 17 17 18 18 18 19 19 19 19 19 19 19 20 20 20 21 21 21 20 20 19 19 19 19 20 18 16 6 9 5 7 6 4 10 11 10 9 9 11 5 7 8 9 11 9 6 8 6 3 2 3 2 2 1 7 8 13 14 14 9 13 10 1 3 3 2 3 1 1 3 1 0 1 0 0 3 1 1 0 1 3 1 7 14
16 16 16 16 17 17 18 18 19 20 20 20 19 20 20 20 21 21 22 23 22 22 22 20 21 20 19 19 18 16 12 7 8 5 5 7 11 10 12 13 11 14 11 3 4 4 4 9 6 7 7 4 1 3 2 3 4 7 4 9 16 13 12 4 7 8 4 10 3 3 3 3 2 0 1 0 2 1 1 3 1 1 2 3 3 8 11 14
16 16 16 16 17 17 18 19 19 20 20 21 21 20 21 22 22 22 22 22 22 22 22 21 20 20 19 18 17 13 8 10 5 3 3 6 13 13 19 21 14 16 7 4 1 3 3 4 6 5 4 4 2 4 2 5 3 7 6 12 17 6 4 8 8 9 9 2 2 6 1 2 1 1 0 1 4 1 6 4 3 4 7 3 5 7 11 13
16 17 17 17 18 18 19 20 20 20 20 20 21 21 21 21 21 21 21 22 22 22 21 21 19 19 18 15 14 6 5 5 2 1 2 9 16 23 20 16 15 11 6 2 2 2 0 1 3 1 3 5 4 1 5 5 1 1 8 11 11 6 7 7 7 9 8 5 5 5 3 6 2 3 1 0 1 3 5 6 9 13 10 7 8 11 11 13
16 17 18 18 19 20 20 20 20 20 20 20 20 20 20 21 21 22 21 21 21 21 20 19 18 17 16 11 11 5 6 3 1 2 5 13 19 19 19 17 16 7 5 4 1 1 2 3 1 1 3 4 2 2 5 4 2 5 9 14 10 1 14 7 3 6 6 4 4 4 8 10 1 0 2 4 6 6 6 8 9 1 3 9 12 12 11 13
17 17 18 19 19 20 20 20 20 20 20 20 20 20 21 21 21 21 21 20 20 20 19 18 17 17 10 11 5 3 4 4 0 4 6 17 18 16 16 17 16 6 7 5 1 3 4 4 4 1 1 5 6 7 1 1 2 9 11 10 12 13 6 1 9 8 4 4 6 5 6 3 4 3 2 5 7 6 3 2 1 4 6 8 4 7 11 14
17 17 19 19 19 19 20 21 21 20 20 20 20 21 21 21 21 21 21 21 20 20 19 17 16 15 10 8 2 4 3 6 3 8 10 14 12 14 15 13 9 6 6 5 4 2 2 6 5 5 5 7 9 9 6 5 5 7 11 8 12 7 14 9 6 3 6 9 11 5 2 5 6 10 1 4 5 9 0 4 1 2 5 10 11 13 16 18
18 18 19 19 19 19 20 20 20 21 21 22 22 22 22 22 22 21 21 20 20 19 17 17 16 10 10 3 5 5 1 5 9 2 6 10 10 12 12 6 4 6 4 4 5 3 5 7 7 4 8 11 1 7 2 5 9 12 14 11 13 10 9 7 11 13 9 7 4 2 8 13 9 6 1 4 6 8 3 0 1 4 5 7 13 14 11 12
19 19 19 20 20 20 21 21 21 22 23 23 23 23 22 22 22 21 20 20 19 18 16 15 15 8 8 3 3 6 7 3 3 5 6 8 10 11 8 7 4 4 4 4 2 3 3 4 4 5 9 10 11 11 2 2 10 10 17 7 10 9 10 5 8 13 16 9 2 3 10 9 9 3 11 9 8 9 3 2 3 5 7 9 13 16 14 13
20 20 20 19 20 20 21 22 22 22 22 23 23 23 22 22 22 22 20 19 18 16 14 13 11 8 5 5 1 4 5 3 4 4 8 10 12 11 10 3 4 4 5 4 4 5 3 2 5 8 9 13 8 9 8 9 6 3 5 4 9 10 10 8 13 8 9 11 5 9 10 7 1 8 12 7 12 2 2 2 1 5 7 10 10 12 14 14
18 18 18 19 20 21 20 20 22 22 22 23 23 23 23 22 22 21 20 18 16 14 11 10 6 5 2 2 3 6 3 2 1 5 10 7 10 10 10 9 4 3 3 7 5 5 5 3 3 5 5 5 3 10 10 6 8 10 13 11 11 9 9 9 10 10 4 6 11 11 15 5 3 6 17 6 4 5 3 2 3 4 4 5 5 8 10 12
18 18 19 20 21 21 22 22 23 22 23 23 23 23 23 22 21 20 19 17 13 11 9 4 6 4 2 0 5 7 3 4 5 6 7 6 6 7 8 7 4 4 2 6 7 2 3 4 3 2 6 5 6 2 8 16 12 9 7 11 14 10 11 7 12 11 5 8 4 6 8 13 9 16 14 11 6 5 4 3 3 5 5 5 5 4 5 8
18 19 20 20 21 21 21 21 22 22 23 24 23 24 22 21 20 20 18 14 10 10 6 8 5 4 3 5 6 7 7 6 5 7 9 3 4 6 6 6 6 6 7 5 5 2 2 2 1 8 5 6 5 5 2 2 6 7 8 10 11 9 14 12 7 9 10 9 4 7 12 15 20 22 13 13 11 8 9 12 10 5 5 5 5 6 7 5
19 19 20 20 21 22 22 21 22 23 24 24 24 22 22 21 20 18 15 10 10 5 8 7 5 3 1 5 6 4 4 3 4 6 5 5 7 7 5 3 4 5 3 5 7 5 4 3 4 8 6 9 6 4 12 3 1 6 5 5 9 6 14 6 7 5 14 9 8 8 15 16 14 14 13 16 9 9 14 14 13 10 6 5 6 7 9 8
19 19 20 21 22 22 23 23 23 24 25 25 23 23 22 22 18 13 8 5 9 5 7 7 4 3 3 7 5 8 6 1 4 5 5 8 5 8 10 10 9 5 5 4 2 2 4 3 2 3 6 2 5 9 8 5 1 2 5 8 6 12 13 4 5 11 13 7 10 10 14 19 15 10 6 11 12 14 16 15 14 12 9 7 7 9 9 10
20 21 21 22 22 23 22 23 24 24 24 23 24 24 22 17 12 7 5 10 11 3 3 1 2 4 2 3 3 3 2 6 14 7 5 0 2 6 7 7 8 5 2 3 3 2 1 2 4 3 4 4 6 8 9 5 4 3 6 2 8 6 13 4 10 6 14 8 6 19 11 10 14 12 7 5 11 14 16 17 15 12 11 9 8 8 8 8
20 21 21 22 22 22 22 22 23 24 23 23 26 21 16 11 8 4 8 8 4 1 1 1 2 1 0 4 3 6 9 6 6 5 10 5 5 6 5 3 2 4 5 4 2 2 2 3 2 3 2 6 5 6 9 11 6 8 4 7 2 8 6 11 3 8 9 14 9 15 17 19 2 1 8 7 11 11 14 15 15 12 9 9 8 8 9 10
21 21 22 21 22 22 22 22 23 23 22 23 22 15 8 5 9 3 5 4 2 4 3 2 3 1 4 4 11 14 9 7 11 11 9 5 0 1 1 2 3 4 4 3 1 2 4 3 4 3 2 1 4 7 11 9 9 9 8 7 8 4 5 5 6 3 12 11 16 12 18 20 17 7 2 3 5 13 13 13 14 12 7 7 7 8 8 10
21 21 21 21 23 22 22 22 22 22 21 21 19 10 7 6 4 3 6 7 4 4 4 5 7 5 3 15 12 7 8 11 10 2 7 7 2 1 1 2 2 2 2 3 2 3 1 3 3 1 4 4 5 7 10 13 8 9 11 12 8 8 7 6 3 5 6 10 11 13 15 17 17 12 8 3 3 6 11 11 11 9 7 5 6 6 7 9
21 22 22 22 22 22 22 22 23 19 21 11 7 3 4 8 8 5 5 5 4 2 0 5 1 3 7 9 8 5 10 5 4 4 3 2 3 5 6 1 1 1 0 1 2 2 2 6 7 8 8 4 4 4 8 10 11 8 8 3 3 3 4 3 3 7 3 3 10 13 16 18 14 13 10 10 2 4 5 6 8 10 12 14 9 7 8 9
21 21 21 22 22 21 21 21 21 17 17 6 6 7 7 5 4 5 8 6 2 1 3 5 2 3 7 7 7 9 12 5 3 3 3 2 1 5 3 3 4 4 1 2 3 1 5 3 7 9 7 5 5 3 4 7 7 6 2 7 6 1 3 2 3 5 4 0 3 10 15 18 18 12 6 6 9 7 7 8 10 11 10 11 15 16 11 8
21 22 22 22 22 21 21 20 17 14 10 5 8 6 2 3 3 0 2 5 6 2 3 6 1 4 5 7 4 1 2 4 12 6 4 3 3 6 3 3 5 6 3 3 3 3 4 7 8 4 2 1 4 3 4 4 8 3 5 2 2 4 3 6 4 3 3 1 5 6 11 14 15 13 8 8 8 7 5 6 9 11 11 10 14 18 17 7
21 22 22 23 23 21 20 19 12 8 5 6 6 4 2 3 0 3 1 3 6 3 3 3 3 4 5 4 1 1 5 2 5 10 4 3 5 0 4 5 3 5 5 3 5 5 6 4 9 8 8 7 4 3 2 4 4 5 5 5 6 3 3 5 4 4 8 0 4 3 5 9 8 8 12 13 13 8 5 6 6 7 10 11 12 14 14 15
21 21 22 21 21 21 18 17 6 5 4 0 4 4 0 0 1 1 1 1 4 8 2 2 1 2 4 5 1 4 1 4 0 9 2 3 5 1 3 2 7 5 6 5 7 8 8 5 3 7 3 5 7 6 2 2 6 4 6 6 5 2 3 4 3 5 8 5 1 4 7 8 5 4 4 7 8 10 10 8 6 5 7 8 7 8 9 16
20 22 22 22 19 19 19 11 5 1 3 1 1 0 0 1 1 1 3 1 1 4 2 1 3 2 4 2 2 2 1 3 6 4 2 2 5 4 3 1 2 2 4 6 5 8 9 8 4 6 1 2 2 3 3 2 5 3 3 5 5 1 3 2 4 6 5 5 6 5 3 8 3 7 8 4 4 8 6 11 14 10 6 5 5 8 8 9
21 22 22 21 17 17 15 2 2 3 2 1 0 2 1 3 1 2 6 3 1 4 4 4 2 3 1 4 7 4 0 2 3 4 2 1 2 3 3 3 1 5 3 4 5 3 5 4 3 9 8 6 5 4 2 4 0 1 2 3 7 6 4 1 3 2 1 3 2 6 2 6 5 4 3 4 6 9 6 7 10 12 8 5 7 7 8 10
22 23 23 18 14 13 5 2 2 3 1 1 2 2 3 3 2 2 1 4 3 1 2 4 2 1 2 6 6 6 5 8 14 2 1 1 3 1 4 3 2 3 1 1 1 1 2 9 4 1 7 8 6 5 5 7 4 3 3 2 5 0 4 4 6 4 4 2 2 3 1 4 6 9 5 3 4 8 7 7 8 8 9 8 6 8 7 7
23 24 20 15 10 10 1 0 3 2 1 3 3 4 3 2 2 2 4 3 3 3 2 5 0 3 5 12 5 4 5 6 6 3 2 2 1 1 2 6 3 7 7 3 5 1 1 6 3 9 3 5 6 3 7 9 5 3 7 4 2 1 3 3 5 5 3 3 10 5 1 3 3 2 3 4 5 5 6 6 7 8 7 8 10 7 7 8
24 22 18 12 10 6 5 1 1 1 2 3 4 3 3 2 4 6 3 2 1 1 4 1 4 3 9 7 4 1 4 1 2 6 10 2 2 1 3 3 3 8 6 5 4 3 0 2 3 4 4 3 3 5 9 10 5 2 7 3 3 2 1 2 4 5 0 3 7 9 2 4 8 3 2 1 3 5 5 7 7 6 7 7 7 9 7 4
24 22 17 13 4 3 2 1 1 2 3 4 4 2 2 2 2 2 5 2 1 3 2 3 4 8 8 10 3 5 11 3 1 5 3 2 8 3 4 1 2 4 3 2 5 7 8 0 1 2 2 3 3 3 1 2 1 2 4 2 1 1 1 2 3 3 4 1 7 9 6 6 7 4 8 4 4 5 4 4 4 5 5 6 6 6 7 7
23 22 18 8 2 1 0 3 3 2 4 3 2 2 2 7 3 5 2 3 1 4 3 3 5 5 11 10 10 11 4 4 8 6 7 5 9 6 9 2 3 1 3 6 3 8 4 3 2 2 1 2 1 2 4 2 3 1 1 1 1 1 2 2 2 2 3 5 8 10 9 9 9 3 3 2 3 1 5 5 6 6 7 8 7 7 7 8
22 20 16 3 0 1 3 4 6 4 4 2 3 4 3 1 6 4 2 4 0 4 2 7 6 5 10 4 1 9 9 8 3 7 8 5 6 12 13 10 9 9 10 11 10 10 4 5 2 3 1 7 4 2 3 4 3 3 3 2 4 1 3 1 2 1 5 8 3 3 5 1 10 8 4 7 6 5 4 4 6 7 8 9 8 9 8 7
22 18 11 1 3 1 1 3 4 4 3 2 4 3 2 5 1 2 2 3 1 0 4 1 5 10 8 2 6 8 1 3 7 7 6 2 6 4 5 10 7 6 5 8 8 11 7 2 6 10 1 2 3 5 4 4 4 2 1 2 4 0 1 3 3 1 1 4 3 1 3 5 3 5 12 14 14 10 8 7 7 7 8 8 8 6 5 6
21 12 4 3 1 1 4 4 4 2 3 5 2 4 5 5 1 2 1 1 5 2 3 2 7 5 5 4 5 6 7 1 6 10 4 5 5 9 8 10 12 9 4 5 6 4 7 8 7 9 5 6 3 4 1 2 1 2 1 0 1 2 1 2 1 1 2 0 4 1 5 6 4 7 3 8 3 7 10 11 9 7 6 6 6 8 8 8
16 3 2 3 2 1 3 3 3 1 4 4 9 5 3 1 0 1 2 2 2 2 2 3 3 3 4 5 3 4 1 4 4 10 5 6 6 4 8 9 10 6 5 5 4 2 2 6 10 3 7 4 7 8 1 1 2 1 3 1 3 3 0 3 2 1 1 2 3 1 3 3 5 0 5 3 3 5 11 11 11 12 11 9 9 10 9 9
7 4 1 1 2 5 5 4 2 2 2 6 7 6 2 4 0 3 1 3 1 2 6 5 3 5 3 4 2 6 4 0 5 6 4 5 3 5 5 2 8 8 8 6 5 7 4 5 3 13 4 2 5 9 4 2 3 3 2 1 1 2 1 1 2 2 2 4 5 3 3 7 3 7 5 9 7 8 9 10 10 9 9 9 9 8 8 8
4 5 2 3 4 6 6 4 2 3 7 7 6 1 2 1 6 6 3 1 2 1 2 5 4 3 5 6 3 7 6 2 2 4 5 4 1 3 4 2 4 8 5 2 4 4 7 11 8 5 11 5 4 3 2 2 0 2 2 4 5 3 2 1 1 2 0 3 2 4 6 6 2 5 5 11 10 9 9 7 5 7 7 8 6 6 7 8
2 1 1 3 4 6 5 3 2 7 5 6 4 4 1 2 1 3 0 2 1 2 2 2 3 3 1 1 5 6 8 4 7 6 3 2 1 1 2 4 4 7 7 4 1 3 2 7 3 1 4 10 12 3 2 2 4 3 4 2 3 3 3 1 1 4 3 2 3 1 6 4 4 4 7 10 9 8 8 9 12 12 10 8 7 8 8 7
1 2 1 3 5 6 6 2 8 5 5 9 1 2 1 2 2 1 3 2 2 0 1 1 1 0 2 1 5 2 6 7 8 4 4 2 4 2 4 2 4 8 8 4 2 4 3 2 5 0 10 11 7 4 5 9 7 1 1 4 1 1 2 3 1 2 4 5 3 3 6 3 1 1 0 2 2 6 9 10 9 10 10 8 7 8 8 9
3 1 2 2 5 8 4 4 6 8 7 5 2 1 2 0 2 1 2 0 0 1 1 0 0 1 0 4 3 4 3 2 6 3 1 1 0 4 6 3 4 8 10 4 2 0 3 2 5 7 8 6 5 3 1 3 6 7 7 6 5 2 2 1 2 2 1 2 2 3 5 3 4 4 3 2 2 3 6 10 9 8 9 10 8 8 9 9
1 3 2 4 9 9 4 10 9 5 4 1 1 2 3 2 1 2 4 3 1 1 0 1 3 1 3 3 3 2 2 4 3 2 1 2 1 4 2 5 5 7 4 3 4 3 1 1 5 10 10 5 6 1 1 1 0 1 2 7 7 7 8 6 2 3 4 3 3 2 7 7 6 5 6 4 2 4 5 8 10 8 10 10 10 11 10 10
1 1 3 4 9 6 6 6 3 1 2 3 1 0 1 3 5 3 2 2 1 1 2 0 1 2 1 2 2 2 3 4 3 1 3 2 2 1 3 8 6 3 6 3 6 2 0 3 2 6 4 10 12 15 3 3 3 1 5 7 6 3 4 3 2 4 5 2 0 2 1 11 3 5 5 3 6 13 11 10 11 10 9 11 10 8 9 7
5 1 5 5 6 3 9 5 3 4 2 1 4 1 1 2 2 2 1 2 2 0 1 0 1 0 1 2 3 2 3 3 2 2 1 1 3 3 1 7 9 7 5 2 3 1 3 3 5 5 4 8 7 3 4 3 2 4 4 4 4 5 4 2 2 4 3 2 3 2 2 10 3 2 3 4 11 12 11 7 11 12 11 10 11 13 12 13
0 1 4 3 6 3 5 1 1 1 1 3 2 2 2 1 1 4 1 2 1 3 2 2 2 2 2 3 2 3 3 3 1 2 3 0 4 4 4 10 9 4 4 2 1 3 4 1 1 4 7 7 5 6 1 2 4 3 3 2 2 3 3 1 0 1 0 3 6 0 5 9 3 3 11 15 13 11 12 10 8 13 12 12 12 12 13 12
0 1 1 7 8 6 5 3 5 2 0 0 2 6 5 1 2 0 0 1 1 0 1 1 1 1 2 2 2 2 2 1 3 2 4 2 4 5 6 12 9 6 2 6 10 2 3 2 1 1 2 3 6 5 6 8 9 6 1 1 3 4 4 4 2 2 1 1 5 1 7 13 15 14 16 17 14 10 8 10 10 7 11 13 14 13 13 13
3 1 4 5 7 6 5 3 2 2 1 0 1 0 0 2 1 0 2 1 1 1 0 2 1 3 4 5 5 5 4 4 0 4 5 4 4 2 2 15 8 4 11 8 6 2 1 1 3 4 5 7 8 7 3 4 7 9 11 8 7 1 2 3 3 3 6 1 2 10 13 18 21 21 15 18 15 13 12 14 15 15 15 13 10 11 11 12
0 3 1 4 5 7 2 4 2 2 0 1 0 1 2 0 2 2 1 0 2 1 1 4 2 2 2 2 1 3 1 6 5 4 4 7 3 4 11 11 7 6 10 6 11 2 2 3 3 5 10 11 10 12 11 7 12 12 14 12 6 6 7 6 6 9 2 2 11 12 10 10 17 16 15 18 17 14 12 12 14 14 13 13 14 12 12 12
3 0 2 1 1 2 2 2 3 1 1 0 1 1 0 1 2 2 3 1 2 0 1 1 5 4 3 1 0 1 4 5 1 4 5 2 7 8 8 5 1 6 7 4 7 3 1 2 3 3 7 8 8 11 9 9 9 11 11 11 12 10 7 8 12 12 7 8 14 12 5 10 17 18 17 16 13 12 14 14 10 11 12 12 14 16 14 12
3 1 1 1 0 2 1 1 1 0 1 1 0 1 1 1 1 1 1 3 3 1 1 0 0 2 1 1 1 1 1 3 5 3 2 4 1 9 6 7 1 6 8 6 4 0 1 5 4 1 8 10 11 11 11 13 12 11 11 11 11 12 13 13 14 9 10 14 14 15 16 17 19 17 17 16 12 10 10 9 11 14 14 13 14 15 15 14
0 1 1 2 2 0 1 1 1 2 1 1 0 3 2 3 2 1 2 1 1 2 1 1 1 1 1 3 3 2 4 6 5 4 2 2 9 2 5 5 6 3 6 5 4 5 3 5 10 6 4 7 10 8 8 9 9 11 11 10 13 15 12 10 9 10 10 11 14 17 18 20 14 7 9 8 7 8 12 14 14 14 15 15 13 13 13 14
1 2 3 3 1 1 0 1 1 1 0 1 1 3 2 2 2 2 3 2 3 1 0 1 3 1 3 4 6 9 8 8 8 11 10 6 8 2 1 4 3 7 8 3 2 5 4 5 4 4 7 3 1 4 6 8 10 11 13 16 15 11 7 7 5 5 4 8 11 10 10 12 6 10 7 11 13 10 10 13 14 13 15 14 12 10 13 15
2 0 3 4 0 1 0 0 0 1 1 4 4 3 1 3 2 2 2 1 2 2 2 3 4 1 2 1 8 8 7 6 9 10 9 10 10 12 10 11 8 8 4 6 2 3 2 2 4 4 7 5 2 3 12 13 10 6 6 5 7 2 2 3 5 4 8 8 11 7 11 3 5 5 8 9 13 14 11 10 13 15 13 10 8 10 11 14
Wind_Direction
15 14 15 12 10 8 7 6 6 3 1 0 358 357 357 357 354 354 354 354 351 351 348 346 345 344 345 343 342 348 341 326 322 358 350 259 14 44 36 23 356 341 338 334 321 344 334 333 343 346 349 9 314 354 256 203 199 187 213 205 227 230 214 197 209 189 215 221 193 150 189 114 315 332 280 44 41 195 22 213 320 6 323 224 265 151 145 139
16 13 14 14 10 8 6 5 4 1 358 358 357 355 355 355 354 353 353 353 351 348 347 345 344 344 343 343 345 350 337 317 317 320 238 244 30 28 25 20 355 352 347 346 323 321 331 313 325 359 343 326 45 264 359 269 176 205 208 217 230 219 228 162 219 213 210 231 192 176 201 155 226 128 292 38 286 205 167 253 346 253 297 35 91 127 140 146
15 14 12 11 9 7 5 4 0 359 356 355 353 352 353 353 351 350 350 349 349 346 343 344 343 343 342 343 347 351 342 322 337 35 228 236 338 345 343 356 5 355 355 313 267 227 242 261 291 331 305 306 266 234 6 264 174 227 219 220 236 219 227 188 210 223 226 255 187 261 253 175 238 145 328 206 243 132 207 203 275 260 233 173 139 140 150 156
14 12 11 9 7 5 3 0 358 355 353 353 350 351 350 349 348 348 348 347 346 345 342 342 343 342 340 350 348 358 344 320 16 257 268 308 330 339 355 8 1 353 329 284 238 237 272 290 284 229 302 260 272 320 301 249 233 260 222 229 238 225 249 220 198 226 231 231 252 231 292 300 242 214 123 187 328 269 257 239 197 212 220 168 162 159 157 162
11 11 9 8 4 2 358 355 354 353 352 350 349 349 349 348 347 346 346 344 343 342 341 340 341 341 344 5 347 41 331 63 290 300 263 324 336 346 354 359 352 344 334 288 341 300 275 272 240 206 216 262 156 352 248 273 264 320 241 249 261 261 232 217 223 228 225 218 224 240 243 249 62 75 184 159 218 242 219 241 231 289 117 166 173 172 165 168
10 8 8 6 4 357 354 355 354 351 348 346 348 348 347 346 344 343 342 340 341 340 340 340 341 340 9 5 38 37 45 27 36 277 309 333 334 2 0 356 348 358 347 351 60 328 339 285 212 234 246 231 237 228 276 215 268 255 264 263 255 248 273 27 215 232 208 226 221 227 242 296 259 267 207 171 203 242 205 106 327 224 156 157 139 162 175 176
7 6 4 2 357 355 353 352 350 346 345 346 348 346 345 344 341 341 339 339 340 340 338 340 341 347 21 21 22 64 87 255 318 253 327 322 351 2 354 349 334 360 347 339 358 26 313 311 243 244 259 270 263 252 250 312 288 273 261 269 262 264 254 265 302 333 237 225 233 217 85 218 239 251 190 202 237 241 247 331 302 181 147 141 158 188 185 185
4 4 1 357 355 355 353 350 347 347 346 346 345 344 343 341 339 339 337 339 335 335 337 338 338 17 25 37 18 341 279 255 255 317 316 345 350 348 347 335 12 344 351 348 317 353 344 313 286 254 238 239 193 213 214 225 256 257 261 250 267 288 280 267 253 264 272 269 274 205 230 238 226 233 20 239 251 270 272 190 108 141 148 169 167 185 201 202
4 2 359 355 356 354 350 349 349 346 345 344 340 340 340 337 336 335 334 332 332 330 334 336 344 62 57 86 49 349 306 231 260 314 4 345 338 337 352 339 3 339 318 306 266 316 347 283 285 217 246 239 243 258 224 130 263 234 251 275 289 271 276 286 259 243 251 262 217 228 243 249 243 348 270 237 255 261 314 278 189 150 165 183 188 185 190 199
2 359 356 352 356 352 348 348 346 346 342 340 339 337 336 335 332 330 327 329 328 330 331 332 355 57 48 57 50 7 268 333 307 346 334 340 332 332 329 301 338 337 326 297 315 281 260 276 285 301 281 256 254 246 224 211 245 349 326 275 267 278 283 272 263 260 250 245 214 239 248 242 202 134 259 212 227 201 72 69 110 161 190 200 201 195 192 195
359 354 352 354 354 350 349 347 345 344 342 340 338 336 332 330 328 325 326 327 328 326 328 337 45 55 54 87 343 282 222 6 281 324 323 343 329 326 313 314 309 303 270 287 262 250 267 282 295 304 266 253 196 239 224 235 251 271 281 296 281 284 268 257 265 263 276 259 220 227 249 241 202 194 235 225 172 155 105 121 144 177 212 230 237 214 206 201
359 356 358 356 351 350 349 348 347 343 341 340 337 332 329 325 324 323 323 327 327 334 322 60 77 104 81 165 248 244 242 277 314 315 315 331 310 286 287 281 276 248 224 270 274 237 253 269 323 303 275 12 247 213 240 223 235 237 253 278 278 289 279 244 243 244 235 256 202 202 257 251 213 234 224 240 220 226 220 216 182 193 208 212 215 228 240 229
355 354 355 351 351 351 349 346 344 345 342 337 333 330 325 323 322 320 320 322 324 321 7 93 74 82 62 322 232 241 276 294 310 320 307 312 275 272 254 269 262 244 221 224 263 219 203 260 268 290 289 287 272 228 306 21 247 239 233 244 280 287 273 249 245 231 233 240 185 142 243 231 230 234 226 230 231 239 258 253 248 236 214 208 199 204 224 227
354 356 352 352 352 350 347 347 345 343 340 335 334 328 325 322 321 317 317 320 317 342 100 87 90 75 117 240 278 259 275 281 314 324 302 312 329 309 308 291 259 253 237 217 245 255 256 218 236 262 275 267 287 339 316 315 25 191 208 205 232 252 250 219 200 205 227 218 213 188 247 250 235 235 216 225 216 210 238 243 240 237 227 207 197 202 213 217
354 356 353 353 352 351 349 347 345 342 340 339 333 326 325 322 320 318 325 12 9 120 112 81 64 80 41 276 256 287 286 6 329 283 301 325 329 327 325 325 312 289 247 222 222 192 205 211 264 282 267 199 252 291 268 243 298 221 168 225 220 220 256 257 227 198 220 222 189 203 246 249 243 240 199 208 201 206 230 238 236 230 221 207 203 205 211 218
354 355 353 353 352 350 349 348 345 342 341 339 328 325 326 325 330 327 44 20 0 62 62 59 34 100 43 336 309 307 43 3 323 313 298 164 306 298 301 301 292 304 320 269 201 215 244 264 237 232 277 299 264 269 267 256 214 259 209 236 217 201 250 285 240 227 215 227 196 206 248 260 254 235 234 189 193 207 223 230 233 222 220 208 203 206 212 216
355 353 352 351 351 349 349 348 346 343 343 336 324 327 325 337 360 63 47 43 6 8 58 161 158 165 62 234 214 357 332 323 284 323 321 288 276 269 317 333 320 335 321 282 220 104 189 208 230 217 196 242 245 256 257 232 218 208 191 238 220 221 221 240 247 216 218 209 226 215 230 242 264 293 232 192 186 208 218 226 229 223 217 214 205 203 208 211
353 351 350 349 350 351 349 348 346 344 344 334 323 329 321 12 18 35 349 7 34 65 80 63 111 85 294 349 355 322 315 325 327 314 300 290 260 303 179 306 301 329 315 328 118 136 156 210 219 254 235 252 232 229 242 237 218 204 207 232 249 276 239 253 216 215 209 218 221 217 235 244 243 256 325 234 211 205 209 216 226 218 202 206 208 210 208 211
348 349 349 350 350 348 348 347 346 349 345 333 325 328 6 15 26 79 38 350 33 1 22 340 23 54 242 297 310 296 313 304 295 319 317 351 349 228 279 229 280 355 347 32 273 132 244 229 225 265 248 224 226 231 259 271 304 262 211 214 213 210 244 246 248 293 199 214 222 223 232 244 244 241 254 295 195 208 227 214 222 206 219 212 211 218 212 220
348 348 348 348 348 347 347 347 348 353 349 339 342 7 8 23 2 338 356 52 67 160 272 275 86 258 299 294 296 288 289 287 335 280 301 313 333 331 308 127 349 21 198 237 314 229 165 217 223 229 241 224 251 283 271 301 300 287 285 286 209 202 256 276 261 254 350 275 227 225 235 242 242 234 231 241 211 212 221 222 228 226 215 212 205 207 220 222
345 345 346 346 345 345 346 347 350 356 355 350 350 46 54 352 16 340 335 300 231 225 286 279 205 222 253 290 306 348 356 331 157 286 301 282 4 347 322 359 4 351 274 257 262 5 59 313 249 242 235 201 164 220 310 303 280 266 176 210 234 194 265 252 240 305 355 241 267 231 235 237 238 232 211 236 249 224 211 208 219 231 232 216 221 244 233 228
346 344 344 345 344 342 344 345 355 359 3 18 41 63 93 55 279 200 336 330 331 345 315 276 316 289 285 248 258 267 143 289 321 317 301 23 327 21 317 9 308 293 319 331 333 298 257 250 261 175 236 175 150 219 259 309 314 246 260 171 193 253 231 280 285 311 322 354 251 247 241 246 244 237 211 223 229 240 212 204 213 218 231 223 220 220 220 217
345 344 345 343 341 337 340 342 354 19 22 22 46 60 61 319 205 285 165 266 271 300 324 344 338 295 299 273 276 94 349 307 297 313 317 22 337 141 298 314 302 290 297 313 295 302 289 238 270 237 179 200 246 210 202 258 278 261 223 252 224 198 101 268 263 4 329 118 279 314 273 260 260 240 229 225 227 231 222 212 221 215 228 226 217 212 210 219
344 343 342 341 338 334 333 342 16 35 32 44 75 63 357 308 307 137 107 245 304 310 227 241 253 256 287 349 313 355 351 285 88 303 327 9 341 253 271 297 307 307 294 294 270 263 260 292 349 19 294 197 237 255 208 230 257 232 236 234 243 187 225 171 254 355 317 324 338 315 293 282 225 240 221 239 230 228 235 245 234 240 241 240 230 238 224 212
344 343 340 338 338 330 332 346 44 353 315 74 358 239 276 336 14 184 109 6 3 287 226 303 159 257 258 247 342 339 269 276 228 257 284 32 322 312 323 351 316 271 278 298 287 270 270 262 241 270 210 265 236 255 220 220 259 332 289 290 277 170 229 327 322 16 16 321 18 13 316 258 200 220 203 224 194 214 220 230 246 238 229 245 246 229 224 233
343 340 339 336 335 332 329 2 305 296 33 85 17 329 328 343 317 149 94 80 351 271 343 11 169 332 168 327 342 298 47 304 251 276 233 230 216 278 304 280 144 295 313 320 294 270 285 312 244 236 218 201 208 208 184 143 58 16 261 336 270 231 185 179 1 39 331 210 287 33 171 281 6 324 260 214 189 208 202 204 229 250 238 205 231 230 225 216
341 341 338 335 336 337 25 298 258 358 45 327 290 328 338 322 278 110 7 1 14 302 331 260 30 308 58 335 332 321 61 319 320 355 15 358 351 254 300 302 296 226 211 259 352 271 291 313 353 158 193 199 189 225 190 177 131 242 176 59 31 140 222 216 217 184 240 304 293 73 50 296 284 281 277 273 243 211 203 204 220 227 250 247 214 228 235 231
342 340 339 337 342 348 177 178 15 8 214 266 322 353 348 300 102 49 80 63 325 338 335 324 138 301 46 318 4 59 244 287 348 319 128 299 72 290 229 303 309 285 310 307 304 243 55 303 16 9 348 177 216 214 171 202 159 202 163 156 111 336 238 211 181 191 212 216 282 301 340 287 247 248 263 178 233 271 252 225 214 222 235 250 259 237 225 240
342 340 342 343 352 45 89 95 118 331 259 269 316 338 331 73 83 94 107 102 245 45 208 69 272 8 328 343 19 22 325 15 15 282 326 25 135 174 327 296 253 299 295 231 276 315 230 230 347 335 293 209 221 233 185 188 189 215 135 134 114 90 59 168 167 164 117 120 253 262 166 257 266 248 236 304 203 224 233 248 251 235 238 242 249 264 258 223
341 342 343 344 14 32 358 47 181 235 270 302 317 332 47 49 36 36 24 330 3 308 14 270 38 312 343 346 294 359 1 328 221 303 324 47 305 21 233 73 306 340 318 310 271 272 285 110 231 293 286 346 275 324 337 250 22 116 92 85 77 64 99 45 86 111 65 57 241 231 224 165 286 177 186 190 221 194 244 262 270 273 268 261 255 253 262 261
342 340 343 0 76 247 352 7 270 278 291 307 310 58 83 40 105 102 79 243 47 264 329 20 352 0 353 14 340 343 337 328 336 12 340 346 354 19 8 113 323 199 253 340 341 337 320 308 59 268 290 297 355 344 360 359 334 88 69 117 186 210 78 81 28 39 108 268 245 210 212 164 227 302 235 207 299 248 203 225 251 261 257 260 263 257 254 255
341 339 338 20 222 98 29 310 307 331 316 311 50 60 74 281 11 77 219 329 88 309 27 313 336 357 331 338 204 335 327 313 356 5 354 342 342 21 21 38 347 352 3 6 328 327 330 11 290 294 230 23 4 41 326 51 32 49 137 108 116 257 80 310 152 65 200 210 275 206 167 350 252 247 272 291 271 266 257 237 246 244 250 253 257 264 268 270
339 338 335 46 15 39 251 260 310 306 330 28 69 48 56 93 9 265 304 333 250 151 301 152 288 328 309 321 349 333 272 360 331 354 356 311 40 6 38 42 1 44 329 336 328 358 308 299 354 359 335 32 41 21 349 19 6 29 356 113 110 172 132 230 188 253 51 322 337 106 191 223 264 257 202 235 249 248 257 250 247 255 256 259 262 269 278 284
337 341 3 301 277 219 292 319 298 342 38 36 74 35 44 58 254 194 261 257 266 318 312 349 313 333 40 53 316 338 348 276 23 338 21 329 15 11 6 21 19 12 14 312 8 356 5 336 352 15 349 341 24 63 279 240 300 228 293 142 195 69 233 287 69 145 193 51 331 283 113 241 145 246 235 229 289 272 252 249 246 246 257 284 316 335 322 311
332 39 344 319 2 290 335 312 316 78 73 65 49 85 104 241 205 215 257 299 277 302 297 294 330 1 320 3 319 347 92 305 3 351 359 16 7 3 0 357 6 18 339 343 27 87 294 241 270 351 280 325 355 346 198 252 234 248 200 78 57 251 60 193 194 141 40 338 4 29 205 203 205 218 313 215 249 13 13 13 18 5 2 2 11 4 359 354
9 320 349 343 3 323 344 326 317 62 80 58 73 44 91 178 157 175 227 201 281 357 309 344 81 38 328 315 295 1 303 93 309 6 318 12 293 32 348 3 5 13 14 11 321 352 322 312 334 330 28 330 337 343 324 20 10 291 23 91 190 264 124 330 351 231 116 57 238 167 310 270 308 316 356 21 62 32 27 20 27 21 10 21 12 354 350 345
13 343 32 319 339 329 332 329 0 75 60 89 93 81 200 287 193 168 298 343 274 318 16 15 332 69 338 332 309 344 314 8 325 32 327 354 358 353 13 327 8 6 30 277 349 90 340 288 315 18 343 310 332 332 288 38 287 3 21 330 299 131 109 107 276 36 5 169 265 128 212 267 25 286 335 18 32 22 24 16 5 22 15 14 347 342 337 336
0 356 277 347 323 321 329 336 57 49 74 79 61 115 257 106 171 201 328 25 13 14 57 114 274 85 317 279 315 341 323 356 340 27 310 357 301 328 25 351 330 13 350 338 107 326 329 306 315 82 284 310 342 41 5 354 49 22 277 287 20 344 24 336 45 356 1 350 300 284 232 260 179 261 10 3 12 4 10 356 11 2 357 347 338 333 333 335
42 65 13 296 321 340 320 358 65 62 67 61 344 102 259 250 277 227 231 131 175 126 15 239 231 350 137 329 246 281 337 344 341 321 29 307 38 355 56 338 333 348 357 12 52 305 319 321 305 295 12 317 327 43 1 330 340 347 276 14 19 86 320 19 201 7 80 289 19 308 62 266 1 289 132 316 328 2 4 15 358 343 336 333 332 333 332 335
33 39 311 267 317 336 343 65 58 47 60 104 201 213 221 147 244 253 333 51 303 150 265 179 237 293 129 237 248 310 300 290 334 308 170 267 253 323 32 352 360 340 343 3 32 267 344 55 292 308 339 345 360 13 19 27 336 346 22 21 11 358 266 168 7 98 109 287 33 324 329 271 250 198 181 236 258 35 22 355 348 339 334 331 333 334 330 332
3 106 269 290 342 327 45 42 47 42 86 242 103 194 341 216 312 319 347 353 334 330 200 194 157 212 224 330 312 197 296 326 312 303 233 302 103 350 67 20 346 354 320 359 29 338 336 12 288 314 337 357 275 207 9 265 230 77 45 43 4 2 2 33 315 50 12 57 305 40 270 272 241 172 191 206 319 5 11 357 342 343 337 338 338 337 337 334
75 41 283 314 347 6 76 49 20 177 90 114 30 166 356 74 59 332 345 338 87 309 19 76 209 249 288 278 290 318 321 310 265 240 246 184 265 219 344 11 15 315 16 335 335 270 65 289 302 305 283 287 292 303 327 248 190 159 67 22 15 14 45 58 10 311 4 252 193 196 323 273 239 185 161 75 348 353 359 358 347 345 344 340 338 337 330 326
39 193 253 314 344 57 63 63 329 41 40 251 318 239 14 33 124 291 27 357 12 338 318 98 246 345 350 30 328 309 354 287 267 235 265 263 263 242 48 21 6 10 0 303 314 328 97 41 314 272 289 297 300 318 9 31 94 34 33 27 26 32 55 3 248 294 263 308 16 263 190 268 342 48 70 3 356 341 339 3 347 340 337 337 336 338 337 333
183 293 325 301 355 65 78 118 35 350 279 319 30 273 319 192 91 10 28 300 89 342 23 330 357 84 285 10 310 296 348 344 282 314 302 56 308 168 58 19 13 356 22 298 9 329 339 247 137 338 335 337 343 343 9 323 50 78 356 326 67 50 12 271 233 310 5 233 225 145 249 275 234 32 346 332 324 325 326 338 348 331 330 331 333 333 332 331
196 287 248 303 355 44 99 164 139 161 253 93 324 12 353 2 16 118 186 276 325 313 339 295 243 309 51 321 321 350 313 203 285 342 9 265 261 334 356 360 355 333 267 277 289 279 228 281 61 29 18 342 314 314 298 325 335 335 151 17 16 357 322 3 0 344 27 276 51 199 263 264 291 316 313 307 306 311 318 325 329 325 322 329 332 332 331 331
32 45 311 342 10 28 54 359 72 117 120 25 27 279 136 339 331 178 123 91 84 324 75 275 350 84 42 10 12 357 325 333 88 286 358 301 316 314 354 340 338 299 293 308 2 62 188 258 233 246 204 218 229 262 263 322 311 301 304 312 302 277 256 227 239 234 229 234 265 242 237 274 286 294 305 302 312 322 335 334 333 332 331 329 326 324 328 326
170 75 342 341 345 42 68 7 20 36 139 147 104 218 53 195 276 336 29 79 344 57 343 41 342 32 329 53 23 302 256 316 301 318 267 294 268 281 333 300 301 299 347 20 349 79 22 290 226 235 252 251 262 266 287 307 291 290 297 297 300 288 278 263 223 236 107 36 268 254 244 251 278 290 294 299 310 325 329 332 328 328 327 326 322 321 322 323
64 235 113 204 119 272 21 335 62 47 0 97 226 145 140 101 24 341 331 102 311 1 94 350 51 76 102 123 154 274 327 309 326 265 318 241 317 308 324 301 303 14 36 28 351 50 53 270 256 234 251 264 272 283 296 297 276 282 286 289 288 280 256 235 237 238 232 225 250 273 320 296 283 283 289 296 312 332 324 325 326 313 317 323 325 324 326 330
123 189 169 333 80 260 146 260 307 112 342 172 22 128 328 125 209 217 174 314 23 337 35 191 267 165 153 166 129 228 252 358 314 274 226 296 3 331 323 336 36 50 36 19 19 61 339 246 253 238 298 300 291 287 285 281 284 282 274 268 262 258 251 241 252 247 223 243 254 275 280 268 267 279 289 301 328 336 331 337 338 337 333 334 327 324 327 336
309 106 299 353 96 133 246 356 45 46 64 277 206 249 195 169 199 325 348 144 325 295 345 110 204 192 211 184 184 183 215 204 240 284 275 305 304 231 271 207 275 359 35 14 340 318 65 291 5 338 326 291 280 269 267 267 271 278 274 267 256 250 258 256 259 262 252 262 261 263 266 271 275 293 312 333 359 356 352 351 341 330 327 327 330 329 340 350
175 145 148 107 27 283 117 25 45 72 59 327 120 267 131 185 208 182 246 197 193 222 230 187 156 274 214 186 206 235 250 247 249 242 251 258 264 198 99 273 70 317 340 343 13 321 35 276 14 23 341 295 288 292 293 295 287 277 275 268 266 266 261 259 229 230 181 235 250 258 268 271 328 35 13 351 345 3 351 338 335 328 322 328 337 358 353 346
86 117 94 106 118 301 311 44 12 73 316 227 167 225 172 202 181 144 323 229 243 214 185 163 172 30 276 252 261 252 245 226 237 243 243 246 243 256 239 258 280 275 302 287 323 291 187 304 330 334 314 265 245 314 324 309 306 301 280 242 238 234 212 251 250 224 218 236 268 267 261 357 7 12 17 356 339 337 344 338 326 316 317 325 347 354 349 341